This is the latest recevied weather packets stored in our database for station/object KF6YUA. If no packets are shown the sender has not sent any weather packets the latest 10 day(s).
| Time | Temp. | Humidity | Pressure | Rain* | Wind** | Luminosity | Snow |
|---|---|---|---|---|---|---|---|
| 1777963269 | 11.11° C | 99% | 1016.9 hPa | 10.16 mm | - | 0 W/m² | - |
| 1777962965 | 11.11° C | 99% | 1016.9 hPa | 6.1 mm | - | 0 W/m² | - |
| 1777962661 | 11.11° C | 99% | 1017.3 hPa | 4.83 mm | - | 0 W/m² | - |
| 1777962358 | 11.11° C | 99% | 1017.3 hPa | 2.29 mm | - | 0 W/m² | - |
| 1777962055 | 11.11° C | 99% | 1017.9 hPa | 0.51 mm | - | 0 W/m² | - |
| 1777961752 | 11.11° C | 99% | 1017.9 hPa | 0 mm | - | 0 W/m² | - |
| 1777961450 | 11.11° C | 99% | 1017.9 hPa | 0 mm | - | 0 W/m² | - |
| 1777961147 | 11.11° C | 99% | 1017.6 hPa | 0 mm | - | 0 W/m² | - |
| 1777960844 | 11.11° C | 99% | 1017.3 hPa | 0 mm | - | 0 W/m² | - |
| 1777960539 | 11.11° C | 99% | 1017.2 hPa | 0 mm | - | 0 W/m² | - |
| 1777960236 | 11.11° C | 99% | 1017.2 hPa | 0 mm | - | 0 W/m² | - |
| 1777959934 | 11.11° C | 99% | 1017.3 hPa | 0 mm | - | 0 W/m² | - |
| 1777959632 | 11.11° C | 99% | 1017.1 hPa | 0 mm | - | 0 W/m² | - |
| 1777959329 | 11.11° C | 99% | 1017.4 hPa | 0 mm | - | 0 W/m² | - |
| 1777959025 | 11.11° C | 99% | 1017.2 hPa | 0 mm | - | 0 W/m² | - |
| 1777958722 | 11.11° C | 99% | 1017.2 hPa | 0 mm | - | 0 W/m² | - |
| 1777958420 | 11.11° C | 99% | 1017.3 hPa | 0 mm | - | 0 W/m² | - |
| 1777958116 | 11.11° C | 99% | 1017.6 hPa | 0 mm | - | 0 W/m² | - |
| 1777957815 | 11.11° C | 99% | 1017.6 hPa | 0 mm | - | 0 W/m² | - |
| 1777957512 | 11.11° C | 99% | 1017.5 hPa | 0 mm | - | 0 W/m² | - |
| 1777957210 | 11.11° C | 99% | 1017.9 hPa | 0 mm | - | 0 W/m² | - |
| 1777956906 | 11.11° C | 99% | 1017.8 hPa | 0 mm | - | 0 W/m² | - |
| 1777956603 | 11.11° C | 99% | 1017.8 hPa | 0 mm | - | 0 W/m² | - |
| 1777956301 | 11.11° C | 99% | 1017.7 hPa | 0 mm | - | 0 W/m² | - |
| 1777955996 | 11.11° C | 99% | 1017.5 hPa | 0 mm | - | 0 W/m² | - |
* Rain latest hour (hover to see other rain measurements)
** Current wind speed in m/s (hover to see current wind gust speed)